Weather History for Fort Payne, AL

Change the Weather History Date:

Monday, October 8, 2012

  Actual Average (KRMG) Record (KRMG)
Temperature  
Mean Temperature 50 °F 64 °F  
Max Temperature 53 °F 76 °F 89 °F (2007)
Min Temperature 46 °F 52 °F 37 °F (2000)
Degree Days  
Heating Degree Days 16 3  
Month to date heating degree days 20  
Since 1 July heating degree days 34  
Cooling Degree Days 0 2  
Month to date cooling degree days 21  
Year to date cooling degree days 1611  
Moisture  
Dew Point 44 °F    
Average Humidity 82    
Maximum Humidity 87    
Minimum Humidity 72    
Precipitation  
Precipitation 0.04 in 0.12 in 1.85 in (2008)
Month to date precipitation 1.08  
Snow  
Snow 0.00 in - - ()
Month to date snowfall  
Since 1 July snowfall  
Since 1 September snowfall  
Snow Depth -    
Sea Level Pressure  
Sea Level Pressure 30.14 in    
Wind  
Wind Speed 2 mph (NNE)    
Max Wind Speed 8 mph    
Max Gust Speed 16 mph    
Visibility 10 miles    
Events Rain    
T = Trace of Precipitation, MM = Missing Value Source: NWS Daily Summary

Daily Weather History Graph

Daily Weather History Graph

Search for Another Location

Airport:

Trip Planner

Search our weather history database for the weather conditions in past years. The results will help you decide how hot, cold, wet, or windy it might be!

Date:

Astronomy

Oct. 08, 2012 Rise Set
Actual Time 6:43 AM CDT 6:16 PM CDT
Civil Twilight 6:18 AM CDT 6:41 PM CDT
Nautical Twilight 5:48 AM CDT 7:11 PM CDT
Astronomical Twilight 5:19 AM CDT 7:40 PM CDT
Moon No Moon Rise 1:50 PM CDT (10/8)
Length of Visible Light 12h 23m
Length of Day
11h 33m
Last Quarter, 46% of the Moon is Illuminated
Oct 8
Last Quarter
Oct 15
New
Oct 21
First Quarter
Oct 29
Full
Nov 6
Last Quarter

Hourly Weather History & Observations

Time (CDT) Temp. Windchill Dew Point Humidity Pressure Visibility Wind Dir Wind Speed Gust Speed Precip Events Conditions
12:15 AM 46.4 °F - 42.8 °F 87% 30.12 in 10.0 mi Calm Calm - N/A   Clear
12:35 AM 46.4 °F - 42.8 °F 87% 30.12 in 10.0 mi Calm Calm - N/A   Clear
12:55 AM 46.4 °F - 42.8 °F 87% 30.12 in 10.0 mi Calm Calm - N/A   Clear
1:15 AM 46.4 °F - 42.8 °F 87% 30.14 in 10.0 mi Calm Calm - N/A   Clear
1:35 AM 46.4 °F - 42.8 °F 87% 30.13 in 10.0 mi Calm Calm - N/A   Clear
1:55 AM 46.4 °F - 42.8 °F 87% 30.12 in 10.0 mi Calm Calm - N/A   Clear
2:15 AM 46.4 °F - 42.8 °F 87% 30.12 in 10.0 mi Calm Calm - N/A   Clear
2:35 AM 46.4 °F - 42.8 °F 87% 30.10 in 10.0 mi Calm Calm - N/A   Clear
2:55 AM 46.4 °F - 42.8 °F 87% 30.09 in 10.0 mi Calm Calm - N/A   Clear
3:15 AM 46.4 °F - 42.8 °F 87% 30.10 in 10.0 mi Calm Calm - N/A   Scattered Clouds
3:35 AM 46.4 °F - 42.8 °F 87% 30.08 in 5.0 mi Calm Calm - N/A   Mostly Cloudy
3:55 AM 46.4 °F - 42.8 °F 87% 30.08 in 10.0 mi Calm Calm - N/A   Mostly Cloudy
4:15 AM 46.4 °F 45.2 °F 42.8 °F 87% 30.08 in 10.0 mi NNE 3.5 mph - N/A   Overcast
4:35 AM 46.4 °F - 42.8 °F 87% 30.09 in 10.0 mi Calm Calm - N/A   Overcast
4:55 AM 48.2 °F - 42.8 °F 82% 30.09 in 2.5 mi Calm Calm - N/A   Haze
5:15 AM 48.2 °F - 42.8 °F 82% 30.11 in 10.0 mi Calm Calm - N/A   Overcast
5:35 AM 48.2 °F - 42.8 °F 82% 30.12 in 10.0 mi Calm Calm - N/A   Overcast
5:55 AM 48.2 °F - 42.8 °F 82% 30.12 in 5.0 mi NNE 4.6 mph - N/A Rain Light Rain
6:15 AM 48.2 °F - 42.8 °F 82% 30.12 in 10.0 mi NNE 8.1 mph - N/A   Overcast
6:35 AM 48.2 °F - 41.0 °F 76% 30.14 in 10.0 mi NNE 3.5 mph - N/A Rain Light Rain
6:55 AM 48.2 °F - 42.8 °F 82% 30.14 in 10.0 mi NNE 5.8 mph - N/A Rain Light Rain
7:15 AM 48.2 °F - 42.8 °F 82% 30.17 in 10.0 mi North 4.6 mph - N/A   Light Drizzle
7:35 AM 48.2 °F - 42.8 °F 82% 30.18 in 10.0 mi North 4.6 mph - N/A   Overcast
7:55 AM 48.2 °F - 42.8 °F 82% 30.19 in 10.0 mi North 5.8 mph - N/A   Light Drizzle
8:15 AM 48.2 °F - 42.8 °F 82% 30.19 in 10.0 mi North 8.1 mph - N/A   Overcast
8:35 AM 48.2 °F - 42.8 °F 82% 30.19 in 10.0 mi NNE 8.1 mph - N/A Rain Light Rain
8:55 AM 48.2 °F - 42.8 °F 82% 30.16 in 10.0 mi ENE 6.9 mph 16.1 mph N/A Rain Light Rain
9:15 AM 48.2 °F - 44.6 °F 87% 30.16 in 5.0 mi North 6.9 mph - 0.02 in Rain Light Rain
9:55 AM 50.0 °F - 44.6 °F 82% 30.18 in 10.0 mi North 3.5 mph - 0.02 in Rain Light Rain
10:15 AM 50.0 °F - 44.6 °F 82% 30.18 in 10.0 mi NNE 3.5 mph - 0.01 in   Light Drizzle
10:35 AM 50.0 °F - 44.6 °F 82% 30.18 in 10.0 mi North 6.9 mph - 0.01 in   Light Drizzle
10:55 AM 50.0 °F - 44.6 °F 82% 30.18 in 10.0 mi NNE 5.8 mph - 0.01 in Rain Light Rain
11:15 AM 50.0 °F - 44.6 °F 82% 30.18 in 10.0 mi NNE 6.9 mph - N/A Rain Light Rain
11:35 AM 50.0 °F - 46.4 °F 87% 30.18 in 10.0 mi NNE 8.1 mph - 0.01 in Rain Light Rain
11:55 AM 50.0 °F - 44.6 °F 82% 30.17 in 10.0 mi NE 6.9 mph - 0.01 in   Overcast
12:15 PM 50.0 °F - 44.6 °F 82% 30.18 in 10.0 mi ENE 8.1 mph - N/A   Overcast
12:55 PM 51.8 °F - 46.4 °F 82% 30.16 in 10.0 mi NNE 6.9 mph - N/A   Overcast
1:15 PM 51.8 °F - 44.6 °F 76% 30.16 in 10.0 mi NNE 6.9 mph - N/A   Overcast
1:35 PM 51.8 °F - 44.6 °F 76% 30.15 in 10.0 mi NE 3.5 mph - N/A   Overcast
2:15 PM 53.6 °F - 44.6 °F 72% 30.14 in 10.0 mi NE 4.6 mph - N/A   Overcast
2:35 PM 53.6 °F - 44.6 °F 72% 30.14 in 10.0 mi NNE 5.8 mph - N/A   Overcast
3:15 PM 53.6 °F - 44.6 °F 72% 30.13 in 10.0 mi ENE 4.6 mph - N/A   Overcast
3:35 PM 53.6 °F - 44.6 °F 72% 30.13 in 10.0 mi ENE 3.5 mph - N/A   Overcast
3:55 PM 53.6 °F - 44.6 °F 72% 30.13 in 10.0 mi NE 8.1 mph - N/A   Overcast
4:15 PM 51.8 °F - 44.6 °F 76% 30.13 in 10.0 mi ENE 5.8 mph - N/A   Overcast
4:35 PM 53.6 °F - 44.6 °F 72% 30.13 in 10.0 mi NNE 5.8 mph - N/A   Mostly Cloudy
4:55 PM 51.8 °F - 44.6 °F 76% 30.13 in 10.0 mi NE 4.6 mph - N/A   Mostly Cloudy
5:15 PM 51.8 °F - 44.6 °F 76% 30.13 in 10.0 mi NE 5.8 mph - N/A   Overcast
5:35 PM 51.8 °F - 44.6 °F 76% 30.13 in 10.0 mi NE 3.5 mph - N/A   Overcast
5:55 PM 51.8 °F - 44.6 °F 76% 30.12 in 10.0 mi NE 5.8 mph - N/A   Overcast
6:15 PM 51.8 °F - 44.6 °F 76% 30.13 in 10.0 mi NNE 3.5 mph - N/A   Overcast
6:35 PM 51.8 °F - 44.6 °F 76% 30.13 in 10.0 mi Calm Calm - N/A   Overcast
6:55 PM 51.8 °F - 46.4 °F 82% 30.13 in 10.0 mi Calm Calm - N/A   Overcast
7:35 PM 50.0 °F - 46.4 °F 87% 30.13 in 10.0 mi NE 3.5 mph - N/A   Overcast
7:55 PM 51.8 °F - 46.4 °F 82% 30.13 in 10.0 mi ENE 3.5 mph - N/A   Overcast
8:15 PM 51.8 °F - 46.4 °F 82% 30.14 in 10.0 mi NE 3.5 mph - N/A   Overcast
9:15 PM 50.0 °F - 46.4 °F 87% 30.15 in 10.0 mi Calm Calm - N/A   Overcast
9:55 PM 50.0 °F - 46.4 °F 87% 30.16 in 10.0 mi Calm Calm - N/A   Overcast
10:15 PM 50.0 °F - 46.4 °F 87% 30.16 in 10.0 mi Calm Calm - N/A   Overcast
10:35 PM 50.0 °F - 46.4 °F 87% 30.16 in 10.0 mi Calm Calm - N/A   Overcast
10:55 PM 50.0 °F - 44.6 °F 82% 30.16 in 10.0 mi Calm Calm - N/A   Overcast
11:35 PM 50.0 °F - 44.6 °F 82% 30.16 in 10.0 mi Calm Calm - N/A   Overcast
11:55 PM 50.0 °F - 44.6 °F 82% 30.15 in 10.0 mi Calm Calm - N/A   Overcast